Location: Handeloh
(53.2500°N, 9.8330°E)
Time: 21:43:01
(UTC+01:00)

OTV 5 (USA 277) - Visible Passes

Search period start: 21 February 2019 00:00
Search period end: 03 March 2019 00:00
Orbit: 342 x 346 km, 54.5° (Epoch: 17 February)

Date Brightness Start Highest point End Pass type
(mag) Time Alt. Az. Time Alt. Az. Time Alt. Az.
24 Feb ? 20:01:51 10° SSW 20:01:57 11° SSW 20:01:57 11° SSW visible
25 Feb ? 18:52:21 10° SSE 18:53:26 12° SE 18:53:53 11° SE visible
25 Feb ? 20:24:58 10° SW 20:25:20 13° SW 20:25:20 13° SW visible
26 Feb ? 19:14:19 10° SSW 19:16:45 25° SE 19:17:09 24° SE visible
26 Feb ? 20:48:31 10° WSW 20:48:36 11° WSW 20:48:36 11° WSW visible
27 Feb ? 19:37:25 10° SW 19:40:14 50° SSE 19:40:19 50° SSE visible
28 Feb ? 20:00:57 10° WSW 20:03:23 59° WSW 20:03:23 59° WSW visible
01 Mar ? 18:49:52 10° SW 18:52:40 49° SSE 18:54:57 14° E visible
01 Mar ? 20:24:40 10° W 20:26:23 31° W 20:26:23 31° W visible
02 Mar ? 19:13:23 10° WSW 19:16:17 87° SSE 19:17:54 24° ENE visible
02 Mar ? 20:48:25 10° W 20:49:20 18° WNW 20:49:20 18° WNW visible
